COSMOS 2386

导读

COSMOS 2386是由独联体(CIS)于2001年12月28日08:00发射升空的卫星,隶属于苏联/俄罗斯经典的“宇宙”(Cosmos)卫星系列。宇宙系列卫星多承担军事侦察、技术试验等任务,不少卫星任务细节未公开。该卫星进入预定轨道后,长期服务于空间技术验证与相关领域观测任务,是独联体空间部署体系中的一员,延续了宇宙系列卫星的航天应用使命,在近地轨道开展既定工作。

基本信息
目录编号:
27057
目录名称:
COSMOS 2386
国际标识:
2001-058C
轨道中心:
EARTH
卫星名称:
COSMOS 2386
卫星全名:
--
卫星状态:
在轨 (已飞行8988 天)
发射日期:
2001-12-28 UTC
国别 :
俄罗斯(独联体) (CIS)
星等 :
--
轨道信息
数据来源 国际轨道数据 AOE轨道数据
星历时间 2026-08-07T08:04:15+0800
19小时前
查看轨道信息
2026-08-07T15:00:00+0800
12小时前
查看轨道信息
半长轴 7794.415km 7794.4km
偏心率 0.0001257 0.0001086
轨道倾角 82.545° 82.548°
近地点辐角 67.767° 106.852°
升交点赤经 181.641° 181.456°
平近点角 292.355° 123.921°
近地点 1415.298km 1415.416km
远地点 1417.258km 1417.11km
周期 114.139分钟 114.139分钟
每日圈数 12.616169 12.616206
详细信息
使用方式:
暂无
2D轨道图
3D轨道图
轨道高度分析图
轨道倾角分析图
轨道综合分析图
查看轨道综合分析图